Location: Unspecified
(0.0000°N, 0.0000°E)
Time: 16:58:13
(UTC+00:00)

Envisat - Pass Details

Date: 16 March 2019
Orbit: 764 x 766 km, 98.2° (Epoch: 23 May)

Event Time Altitude Azimuth Distance (km) Brightness Sun altitude
Rises 18:47:42 0° 161° (SSE) 3,228 6.1 -9.8°
Reaches altitude 10° 18:50:02 10° 157° (SSE) 2,300 5.3 -10.3°
Maximum altitude 18:55:01 58° 78° (ENE) 887 3.0 -11.6°
Drops below altitude 10° 18:59:58 10° 359° (N) 2,291 5.5 -12.8°
Sets 19:02:17 0° 356° (N) 3,215 6.3 -13.4°
